ATLAS 5 CENTAUR DEB, 44896

Orbit data source: Space-Track

ATLAS 5 CENTAUR DEB, 44896 is space debris in HEO originally from a launch on Wed, 17 Oct 2018 UTC launched from the Air Force Eastern Test Range (AFETR). Debris objects in space refer to the collection of defunct objects orbiting the Earth. Examples of debris include non-operational satellites, rocket bodies, and fragments generated from explosions, collisions, or faulty payload assembly.

Loading next visibility...
Identifier
44896, 2018-079BK
Orbit
HEO
Country
Flag of USUS
Related business
Flag of USUnited Launch Alliance/Lockheed Martin (US)
Manufacturer
ULA Decatur
Mission
Spacecraft
Bus & Motor
Unknown
Mass
Unknown
Launch date (UTC)
2018-10-17 (8 years ago)
Launch vehicle
Unknown
Launch site
Air Force Eastern Test Range (AFETR)
Object type
Payload
Rocket body
Debris
Shape & HBR
Unknown shape, 1.1 m
Radar Cross Section
Medium (>0.1 m² and <1 m²)

Expand to show TLE details & history
Last TLE update: 1 week ago

TLE from 1 week ago
0 ATLAS 5 CENTAUR DEB
1 44896U 18079BK  26166.69344157 -.00000110  00000-0  00000-0 0  9999
2 44896  13.4513 344.6437 4633856  61.1454 337.6257  2.00762334 47671
Epoch: 2026-06-15T16:38Z
TLE epoch observation values (Epoch: 2026-06-15T16:38:33.351Z)
Latitude
-0.00001°
Longitude
-168.96881°
Altitude
10,658.932 km
Speed
5.637 km/s
True Right ascension
22h 58m 35s
True Declination
0° 00' 00"
Sunlit
Object was in daylight at epoch
Visualization orbit readout
Latitude
Unknown
Longitude
Unknown
Altitude
Unknown
Speed
Unknown
Apparent Right ascension
Unknown
Apparent Declination
Unknown
Sunlit
N/A
Visualization observer readout
Local Sidereal Time
23:18:45
Azimuth
Unknown
Elevation
Unknown
Doppler factor
Unknown
Orbital elements
Apogee altitude
32,467.47 km
Perigee altitude
7,866.305 km
Semi-major axis
26,545.025 km
Eccentricity
0.46339
Inclination
13.4513°
RAAN
344.6437°
Arg. of periapsis
61.1454°
True anomaly
299.18403°
Mean anomaly
337.6257°
Eccentric anomaly
320.8707°
Mean motion
0.50184 °/min
Orbital period
717.35 mins
BSTAR
0
Loading maneuver chart data...
Computing Atmospheric mass density...

Documentation

Showing up to 5 results
|